QPF
0.00 0.00 0.00 0.00 0.00 0.00 0.00 0.00 0.00 0.00 0.00 0.00 0.00 0.00 0.01 0.01 0.01 0.00 0.00 0.08 0.04 0.04 0.04 0.08 0.01 0.00 0.00 0.01 0.02 0.03 0.04 0.03 0.03 0.03 0.02 0.01 0.01 0.02 0.02 0.07 0.08 0.11 0.18
0.00 0.00 0.00 0.00 0.00 0.00 0.00 0.00 0.00 0.00 0.00 0.00 0.00 0.00 0.01 0.00 0.00 0.00 0.00 0.01 0.01 0.03 0.04 0.03 0.02 0.02 0.02 0.02 0.02 0.03 0.02 0.02 0.01 0.02 0.02 0.01 0.02 0.01 0.03 0.07 0.06 0.08 0.09
0.00 0.00 0.00 0.00 0.00 0.00 0.00 0.00 0.00 0.00 0.00 0.00 0.00 0.00 0.02 0.00 0.00 0.00 0.01 0.02 0.00 0.01 0.01 0.00 0.00 0.02 0.02 0.03 0.04 0.04 0.02 0.00 0.00 0.01 0.01 0.01 0.02 0.02 0.02 0.02 0.02 0.05 0.04
0.00 0.00 0.00 0.00 0.00 0.00 0.00 0.00 0.00 0.00 0.01 0.00 0.00 0.00 0.00 0.01 0.00 0.00 0.00 0.00 0.00 0.00 0.00 0.00 0.00 0.01 0.02 0.03 0.02 0.04 0.02 0.01 0.01 0.01 0.00 0.01 0.01 0.01 0.01 0.01 0.01 0.01 0.01
0.00 0.00 0.00 0.00 0.00 0.00 0.00 0.00 0.00 0.03 0.07 0.00 0.00 0.01 0.03 0.05 0.00 0.00 0.00 0.00 0.00 0.00 0.00 0.00 0.00 0.00 0.01 0.02 0.02 0.01 0.00 0.00 0.00 0.00 0.00 0.00 0.00 0.00 0.00 0.01 0.00 0.00 0.01
0.00 0.00 0.02 0.00 0.00 0.00 0.00 0.00 0.00 0.00 0.05 0.01 0.00 0.02 0.06 0.06 0.01 0.00 0.00 0.00 0.00 0.00 0.00 0.00 0.00 0.00 0.00 0.00 0.01 0.01 0.00 0.00 0.00 0.00 0.00 0.00 0.00 0.00 0.00 0.00 0.00 0.00 0.00
0.03 0.01 0.04 0.01 0.00 0.00 0.00 0.00 0.00 0.00 0.03 0.03 0.02 0.02 0.07 0.14 0.01 0.00 0.00 0.00 0.00 0.00 0.00 0.00 0.00 0.00 0.00 0.00 0.00 0.00 0.00 0.00 0.00 0.00 0.00 0.00 0.00 0.00 0.00 0.00 0.00 0.00 0.00
0.01 0.00 0.01 0.01 0.00 0.00 0.00 0.00 0.00 0.07 0.14 0.04 0.05 0.07 0.09 0.17 0.07 0.00 0.00 0.00 0.00 0.00 0.00 0.00 0.00 0.00 0.00 0.00 0.00 0.00 0.00 0.00 0.00 0.00 0.00 0.00 0.00 0.00 0.00 0.00 0.00 0.00 0.00
0.00 0.01 0.00 0.00 0.01 0.00 0.00 0.00 0.00 0.06 0.24 0.07 0.02 0.04 0.18 0.23 0.04 0.01 0.00 0.00 0.00 0.00 0.00 0.00 0.00 0.00 0.00 0.00 0.00 0.00 0.00 0.00 0.00 0.00 0.00 0.00 0.00 0.00 0.00 0.00 0.00 0.00 0.00
0.00 0.00 0.00 0.00 0.00 0.00 0.00 0.00 0.00 0.00 0.20 0.07 0.03 0.00 0.02 0.09 0.10 0.02 0.00 0.00 0.00 0.00 0.00 0.00 0.00 0.00 0.00 0.00 0.00 0.00 0.00 0.00 0.00 0.00 0.00 0.00 0.00 0.00 0.00 0.00 0.00 0.00 0.00
0.00 0.00 0.00 0.00 0.00 0.00 0.00 0.00 0.00 0.00 0.16 0.09 0.04 0.00 0.00 0.01 0.04 0.01 0.00 0.00 0.00 0.00 0.00 0.00 0.00 0.00 0.00 0.00 0.00 0.00 0.00 0.00 0.00 0.00 0.00 0.00 0.00 0.00 0.00 0.00 0.00 0.00 0.00
0.00 0.00 0.00 0.00 0.00 0.00 0.00 0.00 0.00 0.00 0.14 0.05 0.01 0.00 0.00 0.00 0.00 0.00 0.00 0.00 0.00 0.00 0.00 0.00 0.00 0.00 0.00 0.00 0.00 0.00 0.00 0.00 0.00 0.00 0.00 0.00 0.00 0.00 0.00 0.00 0.00 0.00 0.00
0.00 0.00 0.00 0.00 0.00 0.00 0.00 0.00 0.00 0.00 0.12 0.05 0.00 0.00 0.00 0.00 0.00 0.00 0.00 0.00 0.00 0.00 0.00 0.00 0.00 0.00 0.00 0.00 0.00 0.00 0.00 0.00 0.00 0.00 0.00 0.00 0.00 0.00 0.00 0.00 0.00 0.00 0.00
0.00 0.00 0.00 0.00 0.00 0.00 0.00 0.00 0.00 0.02 0.09 0.10 0.01 0.00 0.00 0.00 0.00 0.00 0.00 0.00 0.01 0.02 0.01 0.00 0.00 0.00 0.00 0.00 0.00 0.00 0.00 0.00 0.00 0.00 0.00 0.00 0.00 0.00 0.00 0.00 0.00 0.00 0.00
0.02 0.00 0.00 0.00 0.00 0.00 0.00 0.01 0.04 0.07 0.06 0.13 0.01 0.00 0.00 0.00 0.00 0.00 0.00 0.00 0.00 0.02 0.03 0.00 0.00 0.00 0.00 0.00 0.00 0.00 0.00 0.00 0.00 0.00 0.00 0.00 0.00 0.00 0.00 0.00 0.00 0.00 0.00
0.07 0.04 0.01 0.02 0.01 0.01 0.02 0.04 0.11 0.11 0.13 0.09 0.00 0.00 0.00 0.00 0.00 0.00 0.00 0.00 0.00 0.00 0.01 0.00 0.00 0.00 0.00 0.00 0.00 0.00 0.00 0.00 0.00 0.00 0.00 0.00 0.00 0.00 0.00 0.00 0.00 0.00 0.00
0.12 0.05 0.01 0.05 0.06 0.02 0.03 0.11 0.12 0.12 0.09 0.01 0.00 0.00 0.00 0.00 0.00 0.00 0.00 0.00 0.00 0.00 0.00 0.00 0.00 0.00 0.00 0.00 0.00 0.00 0.00 0.00 0.00 0.00 0.00 0.00 0.00 0.00 0.00 0.00 0.00 0.00 0.00
0.13 0.12 0.07 0.09 0.08 0.07 0.04 0.07 0.09 0.08 0.02 0.00 0.00 0.00 0.00 0.00 0.00 0.00 0.00 0.00 0.00 0.00 0.00 0.00 0.00 0.00 0.00 0.00 0.00 0.00 0.00 0.00 0.00 0.00 0.00 0.00 0.00 0.00 0.00 0.00 0.00 0.00 0.00
0.12 0.18 0.12 0.13 0.09 0.08 0.03 0.03 0.04 0.02 0.00 0.00 0.00 0.00 0.00 0.00 0.00 0.00 0.00 0.00 0.00 0.00 0.00 0.00 0.00 0.00 0.00 0.00 0.00 0.00 0.00 0.00 0.00 0.00 0.00 0.00 0.00 0.00 0.00 0.00 0.00 0.00 0.00
0.05 0.20 0.12 0.12 0.04 0.01 0.00 0.00 0.00 0.00 0.00 0.00 0.00 0.00 0.00 0.00 0.00 0.00 0.00 0.00 0.00 0.00 0.00 0.00 0.00 0.00 0.00 0.00 0.00 0.00 0.00 0.00 0.00 0.00 0.00 0.00 0.00 0.00 0.00 0.00 0.00 0.00 0.00
0.19 0.17 0.21 0.11 0.04 0.00 0.01 0.00 0.00 0.00 0.00 0.00 0.00 0.00 0.00 0.00 0.00 0.00 0.00 0.00 0.00 0.00 0.00 0.00 0.00 0.00 0.00 0.00 0.00 0.00 0.00 0.00 0.00 0.00 0.00 0.00 0.00 0.00 0.00 0.00 0.00 0.00 0.00
0.12 0.14 0.17 0.15 0.06 0.00 0.00 0.00 0.00 0.00 0.00 0.00 0.00 0.00 0.00 0.00 0.00 0.00 0.00 0.00 0.00 0.00 0.00 0.00 0.00 0.00 0.00 0.00 0.00 0.00 0.00 0.00 0.00 0.00 0.00 0.00 0.00 0.00 0.00 0.00 0.00 0.00 0.00
0.17 0.12 0.22 0.16 0.04 0.00 0.00 0.00 0.00 0.00 0.00 0.00 0.00 0.00 0.00 0.00 0.00 0.00 0.00 0.00 0.00 0.00 0.00 0.00 0.00 0.00 0.00 0.00 0.00 0.00 0.00 0.00 0.00 0.00 0.00 0.00 0.00 0.00 0.00 0.00 0.00 0.00 0.00
0.18 0.21 0.23 0.15 0.01 0.00 0.00 0.00 0.00 0.00 0.00 0.00 0.00 0.00 0.00 0.00 0.00 0.00 0.00 0.00 0.00 0.00 0.00 0.00 0.00 0.00 0.00 0.00 0.00 0.00 0.00 0.00 0.00 0.00 0.00 0.00 0.00 0.00 0.00 0.00 0.00 0.00 0.00
0.17 0.16 0.11 0.05 0.00 0.00 0.00 0.00 0.00 0.00 0.00 0.00 0.00 0.00 0.00 0.00 0.00 0.00 0.00 0.00 0.00 0.00 0.00 0.00 0.00 0.00 0.00 0.00 0.00 0.00 0.00 0.00 0.00 0.00 0.00 0.00 0.00 0.00 0.00 0.00 0.00 0.00 0.00
0.11 0.05 0.02 0.00 0.01 0.00 0.00 0.00 0.00 0.00 0.00 0.00 0.00 0.00 0.00 0.00 0.00 0.00 0.00 0.00 0.00 0.00 0.00 0.00 0.00 0.00 0.00 0.00 0.00 0.00 0.00 0.00 0.00 0.00 0.00 0.00 0.00 0.00 0.00 0.00 0.00 0.00 0.00
MSLP
1016.53 1016.37 1015.69 1015.47 1015.88 1015.49 1015.45 1015.47 1015.42 1015.18 1015.24 1014.48 1014.17 1014.53 1014.74 1015.39 1016.02 1015.52 1016.66 1017.04 1016.98 1016.89 1016.74 1016.58 1016.47 1016.40 1016.36 1016.34 1016.42 1016.46 1016.44 1016.44 1016.32 1016.20 1015.97 1015.92 1015.89 1015.79 1015.75 1015.80 1015.88 1016.04 1016.17
1016.40 1015.80 1015.91 1015.95 1016.01 1016.21 1016.21 1015.84 1015.53 1015.58 1015.62 1014.76 1015.18 1014.76 1015.61 1015.17 1015.97 1016.08 1016.49 1017.31 1017.53 1017.47 1017.30 1017.11 1017.03 1017.01 1016.93 1016.93 1016.94 1016.97 1016.89 1016.82 1016.62 1016.54 1016.37 1016.38 1016.20 1016.04 1015.99 1015.94 1015.91 1015.86 1015.62
1016.90 1016.85 1016.01 1016.13 1016.03 1016.26 1016.09 1015.73 1015.30 1015.86 1015.94 1015.66 1015.72 1016.07 1016.06 1015.73 1016.09 1016.51 1016.30 1016.42 1017.23 1017.96 1017.95 1017.88 1017.71 1017.61 1017.54 1017.55 1017.54 1017.55 1017.47 1017.36 1017.22 1017.07 1016.98 1016.86 1016.72 1016.58 1016.42 1016.18 1015.99 1015.80 1015.53
1017.08 1016.82 1016.33 1016.18 1016.69 1016.28 1015.99 1015.98 1015.73 1016.25 1016.40 1016.18 1016.35 1016.27 1016.41 1016.51 1016.45 1016.11 1016.03 1016.15 1016.55 1017.31 1018.42 1018.50 1018.35 1018.22 1018.17 1018.14 1018.13 1018.07 1018.07 1018.03 1017.86 1017.71 1017.52 1017.42 1017.24 1017.08 1016.82 1016.70 1016.27 1015.96 1015.62
1016.96 1017.02 1016.73 1016.80 1016.72 1016.04 1016.05 1016.38 1016.57 1016.85 1016.83 1016.46 1016.57 1017.00 1016.81 1017.12 1016.80 1016.77 1017.00 1016.94 1017.36 1017.63 1018.10 1018.79 1018.91 1018.89 1018.84 1018.81 1018.69 1018.55 1018.58 1018.52 1018.44 1018.30 1018.03 1017.90 1017.73 1017.55 1017.29 1017.00 1016.67 1016.33 1016.01
1017.12 1017.26 1017.52 1016.80 1016.95 1016.12 1016.20 1017.01 1017.02 1016.99 1017.00 1016.78 1016.52 1017.30 1017.59 1017.39 1016.99 1017.40 1017.36 1017.48 1017.70 1017.74 1018.00 1018.30 1018.57 1019.38 1019.53 1019.40 1019.25 1019.18 1019.18 1019.13 1019.08 1018.94 1018.77 1018.64 1018.49 1018.12 1017.76 1017.46 1017.18 1016.78 1016.27
1017.53 1017.54 1017.45 1017.45 1016.96 1016.77 1017.30 1017.40 1017.12 1017.44 1017.18 1017.34 1017.04 1017.63 1018.14 1018.03 1017.81 1017.96 1017.84 1017.93 1018.22 1018.45 1018.50 1018.82 1018.63 1018.68 1019.55 1020.10 1020.14 1019.89 1019.77 1019.73 1019.73 1019.65 1019.51 1019.41 1019.19 1018.97 1018.74 1018.30 1017.89 1017.37 1016.85
1017.66 1017.67 1017.74 1017.55 1017.15 1017.06 1017.06 1017.56 1017.61 1017.48 1017.71 1017.16 1017.25 1017.55 1018.09 1018.69 1018.44 1018.55 1018.57 1018.83 1018.64 1018.80 1019.17 1019.46 1019.48 1019.46 1019.55 1020.40 1020.76 1020.78 1020.73 1020.56 1020.49 1020.40 1020.29 1020.14 1019.90 1019.70 1019.43 1019.08 1018.78 1018.31 1017.76
1017.61 1017.68 1017.84 1017.74 1017.67 1017.64 1016.85 1017.54 1017.46 1017.36 1017.52 1017.28 1016.83 1016.35 1016.98 1017.56 1018.47 1018.89 1018.91 1019.19 1018.94 1018.89 1019.25 1019.66 1020.05 1020.38 1020.49 1020.60 1020.91 1021.47 1021.47 1021.32 1021.14 1020.99 1020.83 1020.72 1020.55 1020.35 1020.10 1019.79 1019.38 1018.83 1018.31
1017.31 1017.36 1017.58 1017.83 1017.76 1017.55 1017.51 1017.56 1017.28 1017.61 1017.63 1017.37 1016.78 1015.91 1016.64 1017.21 1017.60 1018.74 1019.22 1019.14 1019.11 1019.03 1019.15 1019.38 1019.95 1020.49 1021.03 1021.51 1022.09 1022.21 1022.19 1022.04 1021.86 1021.71 1021.53 1021.37 1021.15 1020.89 1020.61 1020.34 1020.02 1019.59 1019.11
1017.16 1017.24 1017.41 1017.72 1017.83 1017.57 1017.50 1017.66 1017.67 1017.57 1017.47 1017.33 1016.92 1015.71 1016.40 1016.13 1016.98 1017.43 1018.68 1019.15 1019.27 1019.42 1019.37 1019.65 1020.27 1020.78 1021.23 1021.67 1022.34 1022.85 1022.84 1022.81 1022.64 1022.42 1022.23 1021.94 1021.61 1021.36 1021.10 1020.83 1020.57 1020.31 1019.77
1016.77 1017.02 1017.15 1017.43 1017.65 1017.42 1017.35 1017.38 1017.35 1017.45 1017.36 1017.39 1016.98 1016.02 1015.91 1015.57 1015.92 1016.91 1017.86 1018.82 1019.27 1019.53 1019.46 1019.74 1020.48 1021.11 1021.77 1022.46 1022.92 1023.26 1023.39 1023.42 1023.29 1023.10 1022.86 1022.64 1022.38 1022.10 1021.91 1021.63 1021.31 1021.04 1020.83
1015.23 1016.00 1016.73 1017.09 1017.37 1017.32 1017.22 1017.02 1017.06 1017.14 1017.16 1017.21 1016.95 1016.05 1016.46 1015.56 1015.63 1016.54 1017.60 1018.30 1019.07 1019.31 1019.59 1019.88 1020.42 1021.08 1021.71 1022.49 1023.20 1023.50 1023.90 1023.82 1023.79 1023.66 1023.48 1023.21 1023.01 1022.84 1022.58 1022.42 1022.22 1021.97 1021.81
1014.96 1014.90 1016.15 1016.67 1017.06 1017.24 1016.96 1016.81 1016.85 1016.73 1016.94 1017.13 1016.85 1016.82 1016.78 1015.56 1015.67 1015.94 1016.82 1017.73 1018.72 1019.43 1019.74 1020.15 1020.40 1021.01 1021.73 1022.55 1023.35 1023.65 1024.10 1024.24 1024.15 1024.02 1023.90 1023.69 1023.56 1023.45 1023.46 1023.35 1023.18 1022.99 1022.81
1015.10 1015.09 1015.44 1016.03 1016.41 1016.68 1016.49 1016.47 1016.44 1016.76 1016.81 1016.95 1016.52 1016.89 1016.79 1015.88 1015.76 1015.67 1015.94 1016.37 1017.65 1018.93 1019.74 1020.41 1020.23 1020.74 1022.01 1022.66 1023.03 1023.01 1023.85 1024.48 1024.49 1024.45 1024.31 1024.27 1024.23 1024.24 1024.17 1024.09 1023.91 1023.80 1023.67
1014.72 1015.09 1015.14 1015.53 1016.06 1016.35 1016.23 1016.28 1016.55 1016.80 1016.91 1016.91 1016.33 1016.79 1016.87 1016.26 1015.82 1016.00 1016.04 1016.20 1016.81 1017.77 1018.79 1019.61 1020.16 1020.81 1021.45 1021.86 1022.73 1022.79 1023.69 1024.38 1024.71 1024.75 1024.70 1024.69 1024.72 1024.73 1024.76 1024.73 1024.61 1024.50 1024.42
1014.79 1014.88 1015.10 1015.46 1015.85 1016.18 1016.30 1016.52 1016.55 1016.76 1016.69 1016.77 1016.86 1017.09 1017.30 1017.03 1016.31 1016.35 1016.52 1016.55 1016.54 1016.94 1018.00 1019.53 1020.19 1020.83 1021.44 1021.76 1022.56 1022.81 1023.67 1023.27 1024.35 1024.79 1024.98 1025.06 1025.11 1025.09 1025.16 1025.14 1025.00 1024.88 1024.81
1014.52 1014.81 1014.87 1015.35 1015.68 1015.91 1016.19 1016.48 1016.52 1016.59 1016.63 1016.91 1017.10 1017.47 1017.46 1017.23 1017.29 1017.22 1016.96 1017.04 1016.67 1017.13 1017.50 1019.23 1020.56 1021.16 1021.33 1021.66 1022.23 1022.59 1022.05 1021.77 1022.98 1024.32 1024.79 1025.10 1025.23 1025.27 1025.21 1025.22 1025.21 1025.17 1025.23
1014.15 1014.65 1014.74 1015.08 1015.55 1015.97 1016.18 1016.41 1016.62 1016.56 1016.86 1016.95 1017.34 1017.57 1017.62 1017.55 1017.59 1017.21 1017.35 1017.37 1017.34 1017.55 1018.08 1018.52 1019.90 1020.23 1021.11 1021.33 1022.03 1022.30 1021.94 1021.85 1022.01 1023.75 1024.53 1024.76 1025.11 1025.26 1025.35 1025.41 1025.43 1025.38 1025.34
1013.74 1014.30 1014.46 1014.89 1015.23 1015.45 1016.05 1016.16 1016.48 1016.59 1016.82 1017.11 1017.39 1017.49 1017.67 1017.81 1017.78 1018.05 1017.80 1017.78 1017.53 1017.76 1018.16 1018.62 1018.95 1019.49 1020.25 1020.94 1021.30 1021.39 1021.80 1021.96 1022.53 1022.72 1023.27 1023.55 1024.35 1024.70 1025.02 1025.12 1025.09 1025.07 1025.11
1013.53 1013.88 1014.28 1014.49 1014.91 1015.16 1015.70 1016.18 1016.31 1016.77 1017.04 1017.23 1017.32 1017.49 1017.71 1018.06 1018.40 1018.49 1017.95 1017.97 1018.14 1017.92 1018.33 1018.46 1018.92 1019.42 1019.83 1020.42 1020.71 1020.54 1020.63 1021.34 1021.61 1021.43 1021.68 1022.75 1023.33 1023.95 1024.16 1024.47 1024.43 1024.87 1025.07
1013.18 1013.57 1014.01 1014.20 1014.66 1014.96 1015.57 1016.03 1016.23 1016.55 1017.04 1017.25 1017.47 1017.60 1017.97 1018.34 1018.70 1018.69 1018.67 1018.56 1018.80 1018.30 1018.25 1018.39 1018.64 1018.97 1019.51 1020.13 1020.21 1020.23 1020.50 1020.56 1020.88 1021.28 1021.49 1021.32 1021.65 1021.79 1021.92 1022.76 1023.39 1024.31 1024.78
1012.74 1013.12 1013.57 1014.06 1014.52 1014.97 1015.66 1016.05 1016.43 1016.40 1016.95 1017.21 1017.36 1017.64 1017.62 1017.78 1018.61 1018.70 1018.97 1019.00 1019.02 1019.01 1019.09 1019.00 1018.85 1019.18 1019.66 1020.16 1020.19 1020.78 1020.59 1020.69 1020.70 1021.21 1021.66 1021.03 1021.18 1021.56 1021.66 1022.93 1023.38 1023.95 1024.09
1012.36 1012.76 1013.21 1013.97 1014.63 1015.37 1015.89 1016.30 1016.65 1016.52 1016.72 1016.98 1017.24 1017.60 1017.55 1017.98 1018.28 1018.47 1018.83 1018.98 1019.17 1019.44 1019.68 1019.54 1019.45 1019.53 1019.88 1020.26 1020.60 1020.85 1020.90 1021.07 1021.20 1021.02 1021.40 1021.21 1020.77 1021.32 1021.51 1022.66 1023.42 1023.65 1023.91
1012.39 1012.56 1013.21 1013.94 1014.20 1015.08 1015.78 1016.34 1016.58 1016.37 1016.66 1017.02 1017.31 1017.58 1017.74 1018.03 1018.46 1018.65 1018.45 1018.60 1018.86 1019.50 1020.35 1020.48 1020.38 1020.59 1020.66 1020.81 1020.71 1020.63 1020.93 1020.85 1020.56 1020.62 1021.37 1021.36 1020.61 1020.99 1021.40 1021.59 1022.65 1023.09 1023.45
1012.03 1012.13 1012.68 1013.65 1014.15 1014.76 1015.60 1016.22 1016.22 1015.95 1016.69 1016.94 1017.35 1017.41 1017.78 1018.02 1018.53 1018.87 1018.72 1018.88 1019.03 1019.33 1019.56 1020.32 1020.73 1020.98 1021.11 1021.10 1021.19 1020.95 1020.35 1020.19 1019.72 1019.69 1020.21 1020.97 1020.58 1021.05 1020.79 1020.86 1021.15 1022.58 1022.90
Thickness
5799 5801 5806 5808 5805 5808 5807 5805 5804 5805 5805 5810 5810 5806 5805 5799 5793 5794 5783 5780 5777 5776 5775 5773 5771 5769 5767 5765 5762 5759 5757 5755 5755 5755 5754 5752 5750 5749 5748 5745 5743 5740 5738
5799 5804 5803 5804 5805 5802 5801 5803 5805 5803 5803 5808 5803 5807 5801 5803 5796 5793 5787 5780 5776 5775 5773 5772 5769 5767 5766 5763 5760 5758 5756 5754 5754 5753 5754 5751 5750 5749 5748 5746 5744 5744 5746
5795 5796 5803 5802 5804 5802 5803 5805 5808 5803 5803 5803 5803 5800 5799 5800 5797 5794 5792 5790 5781 5774 5771 5768 5767 5765 5763 5760 5758 5755 5753 5753 5752 5751 5750 5750 5749 5747 5746 5746 5746 5747 5749
5793 5796 5800 5802 5797 5801 5804 5804 5807 5800 5799 5803 5800 5801 5799 5797 5797 5797 5797 5794 5789 5781 5770 5767 5765 5764 5761 5758 5756 5754 5752 5750 5749 5748 5748 5747 5746 5746 5746 5745 5747 5748 5749
5792 5793 5796 5797 5797 5803 5804 5801 5800 5797 5796 5802 5800 5797 5799 5794 5796 5795 5792 5791 5786 5781 5774 5766 5763 5761 5758 5755 5754 5753 5750 5748 5747 5746 5746 5745 5745 5744 5746 5747 5748 5749 5747
5787 5789 5790 5795 5795 5803 5803 5797 5797 5799 5798 5799 5803 5795 5794 5795 5796 5793 5791 5787 5784 5781 5777 5771 5767 5758 5755 5753 5751 5749 5746 5744 5743 5742 5741 5740 5740 5742 5743 5744 5745 5746 5748
5782 5785 5789 5790 5794 5796 5793 5795 5797 5793 5796 5797 5797 5791 5789 5791 5791 5789 5788 5785 5781 5778 5775 5769 5768 5764 5755 5749 5746 5745 5743 5740 5738 5737 5737 5737 5736 5737 5737 5739 5739 5741 5743
5780 5783 5785 5788 5792 5795 5795 5793 5792 5791 5792 5800 5792 5789 5777 5779 5785 5785 5784 5780 5780 5776 5771 5766 5764 5761 5757 5748 5742 5739 5737 5735 5732 5731 5732 5732 5733 5733 5733 5734 5733 5735 5737
5777 5780 5781 5784 5786 5790 5797 5792 5793 5794 5789 5797 5803 5801 5783 5777 5778 5780 5781 5778 5779 5778 5772 5766 5761 5756 5751 5746 5741 5734 5730 5729 5728 5728 5728 5728 5729 5729 5730 5730 5732 5734 5737
5777 5779 5781 5782 5784 5787 5791 5791 5795 5793 5792 5791 5802 5812 5803 5794 5779 5767 5776 5778 5779 5777 5774 5769 5763 5756 5748 5740 5733 5728 5725 5723 5723 5723 5724 5725 5726 5727 5728 5729 5730 5731 5732
5776 5777 5780 5778 5779 5784 5788 5789 5790 5792 5795 5794 5797 5809 5802 5806 5797 5785 5767 5770 5775 5774 5773 5768 5761 5753 5746 5739 5731 5724 5721 5718 5718 5718 5719 5722 5723 5724 5725 5726 5728 5728 5729
5778 5777 5778 5777 5776 5780 5785 5789 5791 5792 5794 5795 5800 5808 5806 5805 5800 5790 5779 5773 5768 5770 5773 5767 5759 5751 5742 5732 5726 5722 5718 5715 5715 5715 5716 5717 5718 5719 5720 5721 5722 5722 5721
5788 5783 5778 5776 5775 5777 5782 5788 5791 5793 5795 5794 5799 5807 5805 5811 5811 5798 5786 5778 5769 5772 5769 5767 5760 5750 5742 5732 5724 5719 5715 5714 5713 5713 5712 5713 5714 5714 5714 5714 5714 5714 5713
5788 5791 5779 5776 5775 5775 5782 5786 5791 5795 5795 5795 5799 5800 5801 5813 5812 5807 5794 5784 5769 5764 5764 5759 5759 5751 5741 5732 5723 5719 5714 5712 5712 5711 5710 5708 5707 5707 5707 5706 5706 5706 5705
5784 5785 5782 5780 5777 5777 5782 5788 5792 5791 5794 5795 5801 5799 5800 5809 5811 5811 5807 5802 5781 5760 5754 5756 5756 5752 5738 5732 5727 5723 5716 5711 5711 5708 5706 5704 5701 5700 5699 5698 5698 5698 5697
5784 5782 5784 5782 5780 5779 5781 5787 5788 5788 5790 5792 5801 5798 5798 5805 5809 5808 5806 5804 5796 5779 5763 5765 5757 5751 5742 5737 5729 5726 5718 5712 5709 5705 5702 5699 5696 5695 5693 5692 5692 5690 5688
5779 5781 5781 5780 5779 5778 5779 5780 5784 5784 5785 5790 5793 5794 5792 5797 5803 5803 5801 5801 5796 5791 5773 5762 5758 5750 5742 5738 5730 5727 5720 5720 5710 5705 5700 5696 5695 5693 5691 5690 5689 5687 5684
5778 5776 5779 5778 5777 5777 5777 5775 5777 5782 5784 5785 5788 5788 5789 5794 5793 5795 5797 5795 5796 5791 5783 5759 5750 5744 5742 5738 5733 5729 5730 5731 5720 5709 5702 5696 5694 5692 5691 5690 5689 5686 5680
5776 5774 5775 5775 5773 5773 5773 5773 5773 5775 5780 5784 5784 5784 5786 5788 5788 5795 5794 5792 5791 5787 5778 5769 5752 5752 5743 5741 5734 5731 5732 5731 5727 5713 5704 5700 5695 5692 5690 5687 5685 5680 5675
5775 5773 5773 5774 5773 5774 5771 5772 5770 5772 5777 5781 5782 5785 5785 5786 5787 5787 5789 5788 5789 5782 5775 5767 5762 5756 5749 5744 5740 5737 5731 5731 5724 5719 5713 5708 5701 5696 5691 5688 5684 5680 5674
5771 5772 5769 5772 5772 5773 5772 5770 5771 5770 5774 5776 5780 5782 5784 5782 5780 5782 5789 5787 5784 5781 5773 5769 5761 5757 5752 5745 5741 5744 5741 5734 5731 5729 5724 5714 5706 5699 5695 5690 5685 5678 5671
5769 5769 5767 5768 5769 5771 5768 5768 5770 5771 5771 5773 5774 5778 5778 5778 5777 5779 5781 5781 5777 5778 5775 5770 5765 5759 5755 5750 5749 5746 5741 5736 5728 5729 5725 5723 5717 5714 5711 5700 5692 5681 5672
5768 5768 5767 5766 5766 5767 5764 5764 5763 5770 5769 5770 5773 5775 5779 5783 5778 5780 5777 5776 5775 5773 5770 5768 5764 5760 5754 5750 5749 5739 5740 5737 5733 5729 5722 5720 5718 5711 5706 5694 5687 5678 5672
5767 5767 5764 5762 5761 5759 5758 5757 5758 5766 5767 5769 5772 5773 5777 5778 5780 5780 5778 5776 5774 5771 5768 5765 5762 5760 5755 5750 5745 5740 5737 5734 5731 5729 5723 5715 5721 5710 5705 5693 5684 5676 5667
5763 5766 5764 5759 5761 5759 5755 5754 5757 5764 5764 5765 5768 5770 5774 5776 5774 5775 5778 5776 5773 5767 5761 5759 5757 5753 5751 5747 5744 5741 5735 5731 5729 5728 5722 5716 5719 5710 5703 5698 5684 5675 5665
5763 5766 5763 5759 5759 5757 5752 5748 5754 5764 5759 5761 5764 5770 5769 5774 5770 5770 5774 5771 5766 5765 5763 5755 5752 5748 5745 5743 5741 5739 5742 5735 5737 5732 5729 5716 5715 5706 5701 5699 5689 5674 5666